sat.trackr.live / text

‹ back to catalog

SDX01

NORAD 62459 · 2024-253A

PAYLOAD ACTIVE UNKNOWN

§ Identity

Operator
Country
IND
Launch date
2024-12-30
Launch site
SRILR
Launch vehicle
Mass (kg)
RCS (m²)

External: N2YO · Heavens-Above · Gunter

§ Orbital elements

Epoch: 2026-05-25T04:07:37.425216Z

Period
91.96 min
Inclination
54.9929°
Eccentricity
0.0006438
Mean motion
15.65923535 rev/d
Perigee alt
366.2 km
Apogee alt
374.9 km
Semi-major
6,748.7 km
B*
6.1001e-4
RAAN
96.1293°
Arg perigee
97.7674°
Mean anomaly
262.4098°
Rev number
7,892

§ Raw data

SDX011 62459U 24253A   26145.17196094  .00063200  00000+0  61001-3 0  99982 62459  54.9929  96.1293 0006438  97.7674 262.4098 15.65923535 78928

JSON: /api/v1/satellites/62459 · /tle

For live sub-satellite position, see the globe view (requires WebGL).

§ Visibility from observer

Set your observer location to see the next 7 days of passes ≥ 10°. The values pass through the URL so the page stays shareable.

No JS? Fill the form by hand. The geolocation button needs JavaScript.

§ Radio — SatNOGS DB

ModeDescriptionDownlinkUplink
BPSK Mode U TLM 436.500 MHz
BPSK S-band telemetry 2.285 GHz
FM S-band telemetry 2.234 GHz

3 transmitters · refreshed weekly from db.satnogs.org